Regional Weather Roundup
Issued by NWS

Home | Current Version | Previous Version | Graphics & Text | Print | Product List | Glossary On
Versions: 1 2 3 4 5 6 7 8 9 10 11 12 13 14 15 16 17 18 19 20 21 22 23 24 25 26 27 28 29 30 31 32 33 34 35 36 37 38 39 40 41 42 43 44 45 46 47 48 49 50
000
ASUS43 KIND 201759
RWRIN

WEATHER ROUNDUP FOR INDIANA
NATIONAL WEATHER SERVICE INDIANAPOLIS IN
100 PM EST THU NOV 20 2014

NOTE: "FAIR" INDICATES FEW OR NO CLOUDS BELOW 12,000 FEET WITH NO
SIGNIFICANT WEATHER AND/OR OBSTRUCTIONS TO VISIBILITY.

* - STATION DOES NOT REPORT WEATHER SUCH AS PRECIPITATION OR FOG.

+ - STATION NOT QUALITY CONTROLLED BY THE NATIONAL WEATHER SERVICE.
    USE DATA WITH CAUTION...ESPECIALLY DEWPOINT AND RELATIVE
    HUMIDITY OBSERVATIONS.

INZ001>003-010>013-019-020-201900-
NORTHWEST INDIANA

CITY           SKY/WX    TMP DP  RH WIND       PRES   REMARKS
GARY /AIRPORT/ MOSUNNY   30   7  37 W26G39    30.08S WCI  16
KNOX *+        MOSUNNY   28  10  45 W16G24    30.05F WCI  17
MONTICELLO +   MOSUNNY   28  14  55 W18G29    30.11F WCI  16
VALPARAISO     NOT AVBL

$$

LMZ046-743>745-201900-
SOUTHERN LAKE MICHIGAN

STATION/POSITION TIME  TEMP WIND        PRES
                       AIR  DIR/SP/G
                 (UTC) (F)  (DEG/KT/KT) (MB)
MICHIGAN CITY    1700   24  240/ 25/ 30   N/A

$$

INZ004-005-014>016-021>024-201900-
NORTH CENTRAL INDIANA

CITY           SKY/WX    TMP DP  RH WIND       PRES   REMARKS
ELKHART        CLOUDY    27  10  50 W21G32    30.03S WCI  13
GOSHEN         CLOUDY    25  12  58 W25G33    30.02F WCI   9
6HR MIN TEMP:  19; 6HR MAX TEMP:  26;

PERU/GRISSOM   PTSUNNY   26  19  73 W25       30.08F WCI  11
6HR MIN TEMP:  17; 6HR MAX TEMP:  26;

SOUTH BEND     CLOUDY    25  13  60 W18G28    30.03F WCI  11
6HR MIN TEMP:  19; 6HR MAX TEMP:  26;


$$

INZ006>009-017-018-025>027-201900-
NORTHEAST INDIANA

CITY           SKY/WX    TMP DP  RH WIND       PRES   REMARKS
ANGOLA *+      CLOUDY    25  12  58 W17       29.97F WCI  11
FORT WAYNE     PTSUNNY   26  14  60 W23G31    30.05F WCI  11
6HR MIN TEMP:  18; 6HR MAX TEMP:  26;


$$

INZ028-029-035-036-043>045-051>053-201900-
WEST CENTRAL INDIANA

CITY           SKY/WX    TMP DP  RH WIND       PRES   REMARKS
GREENCASTLE +  PTSUNNY   30  16  55 W12G20    30.17F WCI  21
LAFAYETTE      MOSUNNY   27  14  58 W18G28    30.13F WCI  14
6HR MIN TEMP:  18; 6HR MAX TEMP:  28;

TERRE HAUTE    PTSUNNY   29  14  53 W12       30.20F WCI  19
6HR MIN TEMP:  18; 6HR MAX TEMP:  30;


$$

INZ030>032-037>040-046>048-054>057-064-065-201900-
CENTRAL INDIANA

CITY           SKY/WX    TMP DP  RH WIND       PRES   REMARKS
INDIANAPOLIS   MOSUNNY   29  14  53 SW21      30.14F WCI  16
6HR MIN TEMP:  17; 6HR MAX TEMP:  29;

-EAGLE CREEK   MOSUNNY   28  13  53 SW14G26   30.14F WCI  17
6HR MIN TEMP:  18; 6HR MAX TEMP:  28;

KOKOMO *+      PTSUNNY   27  16  63 W24       30.10F WCI  12
MT COMFORT *+  PTSUNNY   30   7  37 W17       30.13F WCI  18
SHELBYVILLE    PTSUNNY   31  15  52 W18G25    30.14F WCI  19
6HR MIN TEMP:  19; 6HR MAX TEMP:  31;


$$

INZ033-034-041-042-049-050-058-059-201900-
EAST CENTRAL INDIANA

CITY           SKY/WX    TMP DP  RH WIND       PRES   REMARKS
MUNCIE         CLOUDY    27  14  58 W16G29    30.10S WCI  15
6HR MIN TEMP:  19; 6HR MAX TEMP:  27;


$$

INZ060-061-067>069-081>083-085>088-201900-
SOUTHWEST INDIANA

CITY           SKY/WX    TMP DP  RH WIND       PRES   REMARKS
EVANSVILLE     MOSUNNY   32  17  54 SW9       30.26F WCI  24
6HR MIN TEMP:  22; 6HR MAX TEMP:  32;

HUNTINGBURG *+ SUNNY     30  16  55 W8        30.24F WCI  23
6HR MIN TEMP:  19; 6HR MAX TEMP:  30;


$$

INZ062-063-066-070>080-084-089>092-201900-
SOUTH CENTRAL AND SOUTHEAST INDIANA

CITY           SKY/WX    TMP DP  RH WIND       PRES   REMARKS
BLOOMINGTON    PTSUNNY   30  15  53 SW16G23   30.17F WCI  19
6HR MIN TEMP:  19; 6HR MAX TEMP:  30;


$$



USA.gov is the U.S. government's official web portal to all federal, state and local government web resources and services.